Regional Weather Roundup
Issued by NWS

Home | Current Version | Previous Version | Graphics & Text | Print | Product List | Glossary On
Versions: 1 2 3 4 5 6 7 8 9 10 11 12 13 14 15 16 17 18 19 20 21 22 23 24 25 26 27 28 29 30 31 32 33 34 35 36 37 38 39 40 41 42 43 44 45 46 47 48 49 50
000
ASUS43 KBIS 251320
RWRND

NORTH DAKOTA REGIONAL WEATHER ROUNDUP
NATIONAL WEATHER SERVICE BISMARCK ND
700 AM CST THU DEC 25 2014

NOTE: "FAIR" INDICATES FEW OR NO CLOUDS BELOW 12,000 FEET WITH NO
SIGNIFICANT WEATHER AND/OR OBSTRUCTIONS TO VISIBILITY.


NDZ001>003-009>011-017-251400-
NORTHWEST NORTH DAKOTA

CITY           SKY/WX    TMP DP  RH WIND       PRES   REMARKS
WILLISTON      CLOUDY    27  22  81 N15       29.71R WCI  15
MINOT          CLOUDY    28  23  81 NW12      29.64R WCI  18
MINOT AFB      CLOUDY    28  28  99 N15       29.64R WCI  16
$$

NDZ018>021-031>035-040>046-251400-
SOUTHWEST NORTH DAKOTA

CITY           SKY/WX    TMP DP  RH WIND       PRES   REMARKS
BISMARCK       MOCLDY    25  21  85 NW9       29.65R WCI  15
DICKINSON      CLOUDY    25  21  85 NW8       29.64R WCI  16
GARRISON         N/A     25  22  88 NW8       29.65R WCI  16
HETTINGER ARPT CLOUDY    26  22  84 N15       29.64R WCI  14
$$

NDZ004>008-012>016-024-026-027-054-251400-
NORTHEAST NORTH DAKOTA

CITY           SKY/WX    TMP DP  RH WIND       PRES   REMARKS
GRAND FORKS    CLOUDY    26  23  88 W10       29.60R WCI  16
GRND FRKS AFB  PTCLDY    25  25 100 NW8       29.62R WCI  16
DEVILS LAKE    CLOUDY    19  16  86 NW10      29.63R WCI   8
$$

NDZ022-023-025-028>030-036>039-047>053-251400-
SOUTHEAST NORTH DAKOTA

CITY           SKY/WX    TMP DP  RH WIND       PRES   REMARKS
FARGO          CLOUDY    27  23  85 NW9       29.62R WCI  18
JAMESTOWN      MOCLDY    22  20  92 NW8       29.62R WCI  12
$$




USA.gov is the U.S. government's official web portal to all federal, state and local government web resources and services.